Orbital Elements at Epoch 2458961.5 (2020-Apr-22.0) TDB
Reference: JPL 6 (heliocentric ecliptic J2000)
Element | Value | Uncertainty (1-sigma) | Units |
e | .6136019512451029 | 0.0014606 | |
a | 2.449434609771644 | 0.0090033 | au |
q | .9464567537684762 | 9.8726e-05 | au |
i | 1.415346179680742 | 0.0021084 | deg |
node | 241.8820466891401 | 0.011748 | deg |
peri | 19.73267207458791 | 0.0054758 | deg |
M | 349.6899908624108 | 0.059958 | deg |
tp | 2459001.600865976672 (2020-Jun-01.10086598) | 0.012115 | TDB |
period | 1400.222983214312 3.83 | 7.7201 0.02114 | d yr |
n | .2571019075644611 | 0.0014175 | deg/d |
Q | 3.952412465774811 | 0.014528 | au |
|
| | Orbit Determination Parameters
Additional Information
|